Sitka, Alaska, United States (99835)
Lat: 57.05N, Lon: 135.33W
Wx Zone: AKZ023
Local Info
Past Weather Observations for Today

NOTE: This archive is for the closest National Weather Service station to Sitka. Information may differ from the station used for current weather conditions.

Click here for Long-term Archive

Time Weather Temperature Dewpoint Humidity Pressure Winds Precip Visibility
18:53
Mostly Cloudy
Light Rain
54°F / 12°C 52°F / 11°C 94% 29.89 in
(1012 mb)
ENE 3.5 mph
(ENE 6 kph)
0.00 in
(0.00 mm)
10SM
17:53
Mostly Cloudy
55°F / 13°C 48°F / 9°C 77% 29.89 in
(1012 mb)
SSE 3.5 mph
(SSE 6 kph)
- 10SM
16:53
Mostly Cloudy
55°F / 13°C 48°F / 9°C 77% 29.86 in
(1011 mb)
Calm - 10SM
15:53
Mostly Cloudy
55°F / 13°C 48°F / 9°C 77% 29.86 in
(1011 mb)
Calm 0.00 in
(0.00 mm)
10SM
14:53
Mostly Cloudy
Light Rain
55°F / 13°C 50°F / 10°C 82% 29.86 in
(1011 mb)
S 3.5 mph
(S 6 kph)
0.01 in
(0.25 mm)
10SM
13:53
Overcast
55°F / 13°C 52°F / 11°C 88% 29.86 in
(1011 mb)
NW 3.5 mph
(NW 6 kph)
0.01 in
(0.25 mm)
10SM
12:53
Overcast
55°F / 13°C 52°F / 11°C 88% 29.83 in
(1010 mb)
SE 4.6 mph
(SE 7 kph)
0.05 in
(1.27 mm)
10SM
12:18
Overcast
Light Rain
54°F / 12°C 52°F / 11°C 94% 29.83 in
(1010 mb)
SSW 5.8 mph
(SSW 9 kph)
0.05 in
(1.27 mm)
6SM
11:53
Overcast
Light Rain
55°F / 13°C 48°F / 9°C 77% 29.83 in
(1010 mb)
Calm 0.01 in
(0.25 mm)
6SM
11:51
Overcast
Light Rain
55°F / 13°C 48°F / 9°C 77% 29.83 in
(1010 mb)
Calm 0.00 in
(0.00 mm)
10SM
10:53
Overcast
55°F / 13°C 48°F / 9°C 77% 29.8 in
(1009 mb)
SSW 5.8 mph
(SSW 9 kph)
0.00 in
(0.00 mm)
10SM
09:53
Overcast
55°F / 13°C 50°F / 10°C 82% 29.8 in
(1009 mb)
Calm - 10SM
09:06
Overcast
55°F / 13°C 52°F / 11°C 88% 29.77 in
(1008 mb)
WNW 3.5 mph
(WNW 6 kph)
- 10SM
08:53
Overcast
57°F / 14°C 52°F / 11°C 82% 29.77 in
(1008 mb)
Calm - 10SM
08:46
Mostly Cloudy
55°F / 13°C 52°F / 11°C 88% 29.77 in
(1008 mb)
WNW 3.5 mph
(WNW 6 kph)
- 10SM
07:53
Mostly Cloudy
55°F / 13°C 52°F / 11°C 88% 29.77 in
(1008 mb)
Calm - 10SM
06:53
Overcast
54°F / 12°C 54°F / 12°C 100% 29.74 in
(1007 mb)
Calm 0.03 in
(0.76 mm)
10SM
06:35
Mostly Cloudy
Light Rain
54°F / 12°C 54°F / 12°C 100% 29.74 in
(1007 mb)
SSW 5.8 mph
(SSW 9 kph)
0.03 in
(0.76 mm)
10SM
06:15
Overcast
Light Rain
54°F / 12°C 54°F / 12°C 100% 29.74 in
(1007 mb)
WNW 9.2 mph
(WNW 15 kph)
0.01 in
(0.25 mm)
8SM
05:53
Overcast
Light Rain
54°F / 12°C 54°F / 12°C 100% 29.74 in
(1007 mb)
NW 6.9 mph
(NW 11 kph)
0.03 in
(0.76 mm)
7SM
05:16
Overcast
Light Rain
54°F / 12°C 54°F / 12°C 100% 29.71 in
(1006 mb)
WNW 9.2 mph
(WNW 15 kph)
0.03 in
(0.76 mm)
5SM
04:53
Overcast
54°F / 12°C 54°F / 12°C 100% 29.71 in
(1006 mb)
SW 3.5 mph
(SW 6 kph)
0.00 in
(0.00 mm)
10SM
04:19
Overcast
54°F / 12°C 54°F / 12°C 100% 29.71 in
(1006 mb)
SSW 4.6 mph
(SSW 7 kph)
0.00 in
(0.00 mm)
10SM
04:12
Overcast
54°F / 12°C 54°F / 12°C 100% 29.71 in
(1006 mb)
SSW 4.6 mph
(SSW 7 kph)
0.00 in
(0.00 mm)
10SM
03:53
Overcast
Light Rain
54°F / 12°C 54°F / 12°C 100% 29.71 in
(1006 mb)
SSW 4.6 mph
(SSW 7 kph)
0.04 in
(1.02 mm)
9SM
03:51
Overcast
Light Rain
54°F / 12°C 54°F / 12°C 100% 29.71 in
(1006 mb)
SW 4.6 mph
(SW 7 kph)
0.04 in
(1.02 mm)
8SM
03:35
Overcast
Light Rain
54°F / 12°C 54°F / 12°C 100% 29.71 in
(1006 mb)
SW 6.9 mph
(SW 11 kph)
0.02 in
(0.51 mm)
10SM
03:15
Overcast
Light Rain
54°F / 12°C 54°F / 12°C 100% 29.71 in
(1006 mb)
SSE 9.2 mph
(SSE 15 kph)
0.01 in
(0.25 mm)
4SM
02:53
Overcast
54°F / 12°C 54°F / 12°C 100% 29.68 in
(1005 mb)
S 6.9 mph
(S 11 kph)
0.06 in
(1.52 mm)
10SM
02:43
Overcast
Light Rain
54°F / 12°C 54°F / 12°C 100% 29.68 in
(1005 mb)
SSE 9.2 mph
(SSE 15 kph)
0.06 in
(1.52 mm)
10SM
02:18
Overcast
Light Rain
54°F / 12°C 54°F / 12°C 100% 29.68 in
(1005 mb)
Calm 0.06 in
(1.52 mm)
6SM
02:11
Overcast
Rain
54°F / 12°C 54°F / 12°C 100% 29.68 in
(1005 mb)
Calm 0.05 in
(1.27 mm)
2 1/2SM
02:02
Overcast
Light Rain
54°F / 12°C 54°F / 12°C 100% 29.68 in
(1005 mb)
NNW 3.5 mph
(NNW 6 kph)
0.03 in
(0.76 mm)
2SM
01:53
Overcast
Light Rain
54°F / 12°C 54°F / 12°C 100% 29.68 in
(1005 mb)
E 3.5 mph
(E 6 kph)
0.03 in
(0.76 mm)
5SM
01:19
Overcast
54°F / 12°C 54°F / 12°C 100% 29.68 in
(1005 mb)
ESE 4.6 mph
(ESE 7 kph)
0.00 in
(0.00 mm)
10SM
00:53
Overcast
Light Rain
54°F / 12°C 54°F / 12°C 100% 29.68 in
(1005 mb)
Variable 4.6 mph
(Variable 7 kph)
0.06 in
(1.52 mm)
10SM
00:37
Overcast
Light Rain
54°F / 12°C 54°F / 12°C 100% 29.68 in
(1005 mb)
ENE 3.5 mph
(ENE 6 kph)
0.06 in
(1.52 mm)
5SM
00:25
Overcast
Light Rain
54°F / 12°C 54°F / 12°C 100% 29.68 in
(1005 mb)
E 4.6 mph
(E 7 kph)
0.05 in
(1.27 mm)
3SM
00:03
Overcast
Rain
54°F / 12°C 54°F / 12°C 100% 29.68 in
(1005 mb)
Calm 0.02 in
(0.51 mm)
3SM
Time Weather Temperature Dewpoint Humidity Pressure Winds Precip Visibility


Weather for websites

WeatherForYou.com, LLC is not responsible for any damages or problems caused by this service. Current weather conditions are obtained from the closest station including government and personal stations which may have varying degrees of accuracy. Weather forecasts are derived from the NOAA NDFD. Like all things, this site belongs to Jesus Christ... He just trusts me to maintain it. If you have any questions or comments email webmaster@weatherforyou.com

Copyright © 2014, WeatherForYou.com LLC. All rights reserved.